Skip Page Navigation
NASA JPL Caltech
NASA Logo - Jet Propulsion Laboratory + View the NASA Portal
+ Center for Near-Earth Object Studies
JPL Home Earth Solar System Stars & Galaxies Technology
JPL Solar System Dynamics
BODIES ORBITS EPHEMERIDES TOOLS PHYSICAL DATA DISCOVERY FAQ SITE MAP
IMPORTANT: The SSD Announcement email list is now available. Major changes are coming in the near future, including possible hostname and/or URL changes. To be notified of such changes, subscribe to this email list.

Please visit this page for more details.


JPL Small-Body Database Browser
Search: [ help ]  
6380 Gardel (1988 CG)
Classification: Main-belt Asteroid          SPK-ID: 2006380
Ephemeris | Orbit Diagram | Orbital Elements | Mission Design | Physical Parameters | Discovery Circumstances | Close-Approach Data ]

[ hide orbit diagram ]

For accurate long-term ephemerides, please instead use our Horizons system.This orbit viewer was implemented using two-body methods, and hence should not be used for determining accurate long-term trajectories (over several years or decades) or planetary encounter circumstances.


[ revert to old Java-based viewer ]

Orbital Elements at Epoch 2459000.5 (2020-May-31.0) TDB
Reference: JPL 24 (heliocentric ecliptic J2000)
 Element Value Uncertainty (1-sigma)   Units 
e .1365501674594156 3.7622e-08  
a 2.267194524582314 6.4605e-09 au
q 1.957608732587529 8.5188e-08 au
i 5.372906294349148 3.9071e-06 deg
node 164.7972779772651 3.9239e-05 deg
peri 8.441054152270212 4.1355e-05 deg
M 141.1344350139039 1.2693e-05 deg
tp 2458511.665227470598
(2019-Jan-28.16522747)
4.3972e-05 TDB
period 1246.899936881087
3.41
5.3297e-06
1.459e-08
d
yr
n .2887160303339818 1.2341e-09 deg/d
Q 2.576780316577099 7.3427e-09 au
  Orbit Determination Parameters
   # obs. used (total)      1747  
   data-arc span      15640 days (42.82 yr)  
   first obs. used      1976-10-22  
   last obs. used      2019-08-18  
   planetary ephem.      DE431  
   SB-pert. ephem.      SB431-N16  
   condition code      0  
   norm. resid. RMS      .49134  
   source      ORB  
   producer      Otto Matic  
   solution date      2020-Feb-22 18:01:30  

Additional Information
 Earth MOID = .963071 au 
 Jupiter MOID = 2.38633 au 
 T_jup = 3.597 
[ show covariance matrix ]

Ephemeris | Orbit Diagram | Orbital Elements | Mission Design | Physical Parameters | Discovery Circumstances | Close-Approach Data ]

Physical Parameter Table
Parameter Symbol Value Units Sigma Reference Notes
absolute magnitude H 14.6   n/a MPO337308  
diameter diameter 3.028 km 0.436 urn:nasa:pds:neowise_diameters_albedos::2.0[mainbelt] (http://adsabs.harvard.edu/abs/2011ApJ...741...68M)  
geometric albedo albedo 0.335   0.088 urn:nasa:pds:neowise_diameters_albedos::2.0[mainbelt] (http://adsabs.harvard.edu/abs/2011ApJ...741...68M)  

6380 Gardel           Discovered 1988 Feb. 10 by M. Arai and H. Mori at Yorii.
Singer, composer and actor Carlos Gardel (1890-1935) recorded during his lifetime hundreds of songs and composed together with Alfredo Le Pera famous tangos such as Mi Buenos Aires querido, Volver or Por una cabeza. The name was suggested by W. A. Fröger.
NOTE: some special characters may not display properly (any characters within {} are an attempt to place the proper accent above a character)
Reference: 20100923/MPCPages.arcLast Updated: 2010-12-06

[ show close-approach data ]
Alternate Designations
 1988 CG = 1976 UL15 = 1976 UX20 = 1990 WW4 
Ephemeris | Orbit Diagram | Orbital Elements | Mission Design | Physical Parameters | Discovery Circumstances | Close-Approach Data ]
ABOUT SSD CREDITS/AWARDS PRIVACY/COPYRIGHT GLOSSARY LINKS
FirstGov 2020-Apr-03 01:54 UT
(server date/time)  
NASA Home Page
Site Manager:   Ryan S. Park
Webmaster  Alan B. Chamberlin